TimeEDT,TemperatureF,Dew PointF,Humidity,Sea Level PressureIn,VisibilityMPH,Wind Direction,Wind SpeedMPH,Gust SpeedMPH,PrecipitationIn,Events,Conditions,WindDirDegrees,DateUTC
12:15 AM,60.8,50.0,68,30.03,10.0,SSE,10.4,-,N/A,,Overcast,150,2013-03-12 04:15:00
12:35 AM,60.8,50.0,68,30.01,10.0,SE,11.5,17.3,N/A,,Overcast,140,2013-03-12 04:35:00
12:55 AM,60.8,51.8,72,30.02,10.0,SE,11.5,16.1,N/A,,Overcast,140,2013-03-12 04:55:00
1:15 AM,60.8,51.8,72,30.01,10.0,SSE,10.4,17.3,N/A,,Overcast,150,2013-03-12 05:15:00
1:35 AM,60.8,51.8,72,30.01,10.0,SSE,8.1,-,N/A,,Overcast,160,2013-03-12 05:35:00
1:55 AM,60.8,51.8,72,30.01,10.0,SSE,5.8,-,N/A,,Mostly Cloudy,150,2013-03-12 05:55:00
2:15 AM,59.0,51.8,77,30.00,10.0,SSE,8.1,-,N/A,,Mostly Cloudy,160,2013-03-12 06:15:00
2:35 AM,60.8,51.8,72,30.00,10.0,SSE,8.1,-,N/A,,Overcast,150,2013-03-12 06:35:00
2:55 AM,60.8,51.8,72,29.98,10.0,SE,9.2,-,N/A,,Overcast,140,2013-03-12 06:55:00
3:15 AM,60.8,51.8,72,29.97,10.0,SE,11.5,-,N/A,,Mostly Cloudy,140,2013-03-12 07:15:00
3:35 AM,60.8,51.8,72,29.95,10.0,SE,12.7,16.1,N/A,,Scattered Clouds,140,2013-03-12 07:35:00
3:55 AM,60.8,51.8,72,29.96,10.0,SSE,9.2,17.3,N/A,,Mostly Cloudy,160,2013-03-12 07:55:00
4:15 AM,60.8,51.8,72,29.94,10.0,SSE,10.4,-,N/A,,Overcast,150,2013-03-12 08:15:00
4:35 AM,60.8,53.6,77,29.94,10.0,SSE,8.1,-,N/A,,Mostly Cloudy,150,2013-03-12 08:35:00
4:55 AM,60.8,53.6,77,29.94,10.0,SSE,11.5,-,N/A,,Overcast,150,2013-03-12 08:55:00
5:15 AM,60.8,53.6,77,29.92,10.0,SSE,11.5,17.3,N/A,,Overcast,150,2013-03-12 09:15:00
5:35 AM,60.8,53.6,77,29.92,10.0,SSE,12.7,19.6,N/A,,Overcast,160,2013-03-12 09:35:00
5:55 AM,60.8,53.6,77,29.92,10.0,SSE,8.1,-,N/A,,Overcast,160,2013-03-12 09:55:00
6:15 AM,60.8,53.6,77,29.92,10.0,SSE,9.2,-,N/A,,Light Drizzle,150,2013-03-12 10:15:00
6:35 AM,60.8,53.6,77,29.92,10.0,North,-9999.0,-,N/A,,Overcast,0,2013-03-12 10:35:00
6:55 AM,60.8,53.6,77,29.92,10.0,North,-9999.0,-,N/A,Rain,Rain,0,2013-03-12 10:55:00
7:15 AM,59.0,55.4,88,29.92,7.0,North,-9999.0,-,0.02,Rain,Rain,0,2013-03-12 11:15:00
7:35 AM,57.2,57.2,100,29.91,10.0,SSE,12.7,-,0.09,Rain,Rain,150,2013-03-12 11:35:00
7:55 AM,57.2,57.2,100,29.91,10.0,South,9.2,-,N/A,Rain,Light Rain,170,2013-03-12 11:55:00
8:15 AM,59.0,57.2,94,29.91,7.0,SSE,11.5,17.3,0.02,Rain,Rain,150,2013-03-12 12:15:00
8:35 AM,59.0,57.2,94,29.90,10.0,North,-9999.0,-,0.03,Rain,Light Rain,0,2013-03-12 12:35:00
8:55 AM,59.0,57.2,94,29.89,7.0,North,-9999.0,-,0.01,Rain,Light Rain,0,2013-03-12 12:55:00
9:15 AM,59.0,57.2,94,29.88,7.0,North,-9999.0,-,0.03,Rain,Rain,0,2013-03-12 13:15:00
9:35 AM,60.8,59.0,94,29.88,10.0,North,-9999.0,-,0.05,Rain,Light Rain,0,2013-03-12 13:35:00
9:55 AM,60.8,59.0,94,29.87,10.0,North,-9999.0,-,N/A,Rain,Light Rain,0,2013-03-12 13:55:00
10:15 AM,60.8,59.0,94,29.87,10.0,North,-9999.0,-,N/A,Rain,Light Rain,0,2013-03-12 14:15:00
10:35 AM,60.8,60.8,100,29.85,10.0,North,-9999.0,-,0.01,Rain,Light Rain,0,2013-03-12 14:35:00
10:55 AM,60.8,60.8,100,29.85,7.0,North,-9999.0,-,0.02,Rain,Light Rain,0,2013-03-12 14:55:00
11:15 AM,60.8,60.8,100,29.85,10.0,South,15.0,21.9,0.04,Rain,Light Rain,180,2013-03-12 15:15:00
11:35 AM,60.8,60.8,100,29.85,10.0,North,-9999.0,-,0.04,,Overcast,0,2013-03-12 15:35:00
11:55 AM,62.6,60.8,94,29.85,10.0,South,16.1,23.0,N/A,,Overcast,180,2013-03-12 15:55:00
12:15 PM,62.6,60.8,94,29.85,10.0,South,13.8,20.7,N/A,,Overcast,180,2013-03-12 16:15:00
12:35 PM,62.6,60.8,94,29.85,10.0,South,16.1,20.7,N/A,Rain,Light Rain,180,2013-03-12 16:35:00
12:55 PM,62.6,62.6,100,29.84,10.0,South,13.8,18.4,N/A,Rain,Light Rain,180,2013-03-12 16:55:00
1:15 PM,62.6,62.6,100,29.84,10.0,South,13.8,-,N/A,,Overcast,170,2013-03-12 17:15:00
1:35 PM,62.6,62.6,100,29.83,10.0,South,12.7,18.4,N/A,,Overcast,180,2013-03-12 17:35:00
1:55 PM,64.4,62.6,94,29.81,10.0,South,12.7,18.4,N/A,,Overcast,180,2013-03-12 17:55:00
2:15 PM,66.2,62.6,88,29.80,10.0,South,10.4,18.4,N/A,,Mostly Cloudy,180,2013-03-12 18:15:00
2:35 PM,66.2,62.6,88,29.79,10.0,SSE,10.4,-,N/A,,Mostly Cloudy,160,2013-03-12 18:35:00
2:55 PM,66.2,62.6,88,29.78,10.0,South,8.1,-,N/A,,Mostly Cloudy,180,2013-03-12 18:55:00
3:15 PM,66.2,62.6,88,29.76,10.0,South,10.4,-,N/A,,Overcast,180,2013-03-12 19:15:00
3:35 PM,69.8,62.6,78,29.75,7.0,South,13.8,-,N/A,,Mostly Cloudy,170,2013-03-12 19:35:00
3:55 PM,68.0,62.6,83,29.75,10.0,SSW,10.4,-,N/A,,Overcast,200,2013-03-12 19:55:00
4:15 PM,68.0,62.6,83,29.75,10.0,South,6.9,-,N/A,Rain,Rain,170,2013-03-12 20:15:00
4:35 PM,66.2,62.6,88,29.74,10.0,SSW,5.8,-,N/A,,Light Drizzle,210,2013-03-12 20:35:00
4:55 PM,68.0,60.8,78,29.74,10.0,SSW,17.3,21.9,N/A,,Overcast,200,2013-03-12 20:55:00
5:15 PM,69.8,60.8,73,29.74,10.0,SSW,9.2,-,N/A,,Overcast,210,2013-03-12 21:15:00
5:35 PM,69.8,60.8,73,29.74,10.0,SW,6.9,-,N/A,,Scattered Clouds,220,2013-03-12 21:35:00
5:55 PM,69.8,60.8,73,29.74,10.0,SSW,9.2,-,N/A,,Scattered Clouds,200,2013-03-12 21:55:00
6:15 PM,68.0,60.8,78,29.74,10.0,South,8.1,-,N/A,,Scattered Clouds,190,2013-03-12 22:15:00
6:35 PM,66.2,60.8,83,29.76,10.0,WNW,10.4,-,N/A,,Scattered Clouds,290,2013-03-12 22:35:00
6:55 PM,64.4,62.6,94,29.77,10.0,SSW,3.5,-,0.02,Rain,Light Rain,200,2013-03-12 22:55:00
7:15 PM,62.6,62.6,100,29.77,10.0,Calm,Calm,-,0.03,Rain,Light Rain,0,2013-03-12 23:15:00
7:35 PM,62.6,62.6,100,29.78,10.0,Calm,Calm,-,0.03,,Overcast,0,2013-03-12 23:35:00
7:55 PM,62.6,60.8,94,29.80,5.0,Calm,Calm,-,N/A,,Mostly Cloudy,0,2013-03-12 23:55:00
8:15 PM,60.8,60.8,100,29.81,0.5,Calm,Calm,-,N/A,Fog,Fog,0,2013-03-13 00:15:00
8:35 PM,57.2,53.6,88,29.83,10.0,North,11.5,19.6,N/A,,Overcast,10,2013-03-13 00:35:00
8:55 PM,55.4,51.8,88,29.85,10.0,North,10.4,-,N/A,,Mostly Cloudy,350,2013-03-13 00:55:00
9:15 PM,55.4,51.8,88,29.86,10.0,North,6.9,-,N/A,,Overcast,350,2013-03-13 01:15:00
9:35 PM,53.6,51.8,94,29.86,10.0,North,3.5,-,N/A,,Mostly Cloudy,360,2013-03-13 01:35:00
9:55 PM,53.6,51.8,94,29.87,10.0,North,6.9,-,N/A,,Scattered Clouds,350,2013-03-13 01:55:00
10:15 PM,53.6,50.0,88,29.88,10.0,North,8.1,-,N/A,,Mostly Cloudy,10,2013-03-13 02:15:00
10:35 PM,53.6,48.2,82,29.88,10.0,NNE,5.8,-,N/A,,Mostly Cloudy,20,2013-03-13 02:35:00
10:55 PM,53.6,44.6,72,29.88,10.0,North,9.2,-,N/A,,Mostly Cloudy,10,2013-03-13 02:55:00
11:15 PM,53.6,44.6,72,29.88,10.0,Calm,Calm,-,N/A,,Mostly Cloudy,0,2013-03-13 03:15:00
11:35 PM,51.8,44.6,76,29.89,10.0,North,4.6,-,N/A,,Mostly Cloudy,10,2013-03-13 03:35:00
11:55 PM,51.8,44.6,76,29.90,10.0,Calm,Calm,-,N/A,,Scattered Clouds,0,2013-03-13 03:55:00